This is the latest recevied weather packets stored in our database for station/object W7TTE. If no packets are shown the sender has not sent any weather packets the latest 10 day(s).
| Time | Temp. | Humidity | Pressure | Rain* | Wind** | Luminosity | Snow |
|---|---|---|---|---|---|---|---|
| 1777716349 | 22.78° C | 27% | 1012.9 hPa | 0 mm | - | 0 W/m² | - |
| 1777716047 | 22.78° C | 26% | 1012.9 hPa | 0 mm | - | 0 W/m² | - |
| 1777715744 | 22.22° C | 27% | 1013 hPa | 0 mm | - | 0 W/m² | - |
| 1777715442 | 22.22° C | 28% | 1013 hPa | 0 mm | - | 0 W/m² | - |
| 1777715138 | 21.67° C | 28% | 1012.8 hPa | 0 mm | - | 0 W/m² | - |
| 1777714837 | 22.22° C | 27% | 1012.9 hPa | 0 mm | - | 0 W/m² | - |
| 1777714535 | 22.22° C | 27% | 1012.8 hPa | 0 mm | - | 0 W/m² | - |
| 1777714232 | 22.22° C | 27% | 1012.8 hPa | 0 mm | - | 0 W/m² | - |
| 1777713930 | 21.67° C | 27% | 1012.9 hPa | 0 mm | - | 0 W/m² | - |
| 1777713627 | 21.11° C | 27% | 1012.8 hPa | 0 mm | - | 0 W/m² | - |
| 1777713323 | 19.44° C | 29% | 1012.7 hPa | 0 mm | - | 0 W/m² | - |
| 1777713021 | 18.33° C | 31% | 1012.7 hPa | 0 mm | - | 0 W/m² | - |
| 1777712718 | 18.89° C | 30% | 1012.7 hPa | 0 mm | - | 0 W/m² | - |
| 1777712415 | 18.89° C | 31% | 1012.9 hPa | 0 mm | - | 0 W/m² | - |
| 1777712110 | 19.44° C | 32% | 1012.9 hPa | 0 mm | - | 0 W/m² | - |
| 1777711808 | 19.44° C | 34% | 1012.8 hPa | 0 mm | - | 0 W/m² | - |
| 1777711505 | 20° C | 35% | 1012.9 hPa | 0 mm | - | 0 W/m² | - |
| 1777711200 | 20° C | 33% | 1012.9 hPa | 0 mm | - | 0 W/m² | - |
| 1777710897 | 19.44° C | 33% | 1013.1 hPa | 0 mm | - | 0 W/m² | - |
| 1777710593 | 20° C | 31% | 1013.1 hPa | 0 mm | - | 0 W/m² | - |
| 1777710290 | 20° C | 32% | 1013 hPa | 0 mm | - | 0 W/m² | - |
| 1777709988 | 20.56° C | 31% | 1013 hPa | 0 mm | - | 0 W/m² | - |
| 1777709686 | 20.56° C | 29% | 1012.9 hPa | 0 mm | - | 0 W/m² | - |
| 1777709382 | 20.56° C | 30% | 1012.9 hPa | 0 mm | - | 0 W/m² | - |
| 1777709079 | 20.56° C | 29% | 1012.9 hPa | 0 mm | - | 0 W/m² | - |
* Rain latest hour (hover to see other rain measurements)
** Current wind speed in m/s (hover to see current wind gust speed)